DW8945 Weather Reports


Display with metric or nautical units.
time (UTC)temp
F
wind
direction
speed
MPH
gust
MPH
rain 1hr
in
rain 24hr
in
rain mn
in
humidity
%
barometer
mb
20240715143413 86 251 2.0 9.0 0.00 0.05 0.05 73 1009.9
20240715142918 86 291 3.0 9.0 0.00 0.05 0.05 73 1009.9
20240715142343 86 281 2.0 6.0 0.00 0.05 0.05 74 1009.8
20240715141907 85 243 2.0 10.0 0.00 0.05 0.05 74 1009.9
20240715141352 85 296 4.0 10.0 0.00 0.05 0.05 74 1009.9
20240715140857 84 233 4.0 8.0 0.00 0.05 0.05 76 1010.0
20240715140357 84 273 2.0 8.0 0.00 0.05 0.05 76 1010.1
20240715135849 83 215 2.0 6.0 0.00 0.05 0.05 77 1010.2
20240715135357 83 293 2.0 6.0 0.00 0.05 0.05 77 1010.3
20240715134921 82 280 2.0 6.0 0.00 0.05 0.05 78 1010.4
20240715134347 81 221 2.0 6.0 0.00 0.05 0.05 80 1010.4
20240715133853 81 220 2.0 5.0 0.00 0.05 0.05 80 1010.3
20240715133356 81 292 0.0 4.0 0.00 0.05 0.05 80 1010.3
20240715132843 80 265 1.0 4.0 0.00 0.05 0.05 81 1010.4
20240715132349 80 303 0.0 4.0 0.00 0.05 0.05 81 1010.5
20240715131853 79 221 1.0 4.0 0.00 0.05 0.05 82 1010.5
20240715131358 79 268 0.0 6.0 0.00 0.05 0.05 82 1010.5
20240715130844 79 250 1.0 4.0 0.00 0.05 0.05 84 1010.5
20240715130408 78 232 1.0 4.0 0.00 0.05 0.05 84 1010.6
20240715125856 78 223 0.0 5.0 0.00 0.05 0.05 85 1010.7
20240715125342 77 221 1.0 5.0 0.00 0.05 0.05 85 1010.7
20240715124847 77 297 1.0 5.0 0.00 0.05 0.05 85 1010.8
20240715124351 77 287 1.0 5.0 0.00 0.05 0.05 85 1010.8
20240715123857 77 255 1.0 3.0 0.00 0.05 0.05 85 1010.7
20240715123342 76 256 1.0 3.0 0.00 0.05 0.05 85 1010.7
20240715122847 76 270 0.0 3.0 0.00 0.05 0.05 85 1010.7
20240715122416 76 224 1.0 6.0 0.00 0.05 0.05 85 1010.6
20240715121858 76 315 1.0 6.0 0.00 0.05 0.05 85 1010.6
20240715121346 76 263 0.0 4.0 0.00 0.05 0.05 85 1010.6
20240715120912 76 242 1.0 5.0 0.00 0.05 0.05 85 1010.7
20240715120351 76 321 2.0 5.0 0.00 0.05 0.05 85 1010.8
20240715115845 76 250 0.0 4.0 0.00 0.05 0.05 86 1010.8
20240715115351 76 235 2.0 4.0 0.00 0.05 0.05 86 1010.8
20240715114848 76 255 1.0 3.0 0.00 0.05 0.05 86 1010.7
20240715114354 75 245 0.0 1.0 0.00 0.05 0.05 86 1010.6
20240715113921 75 245 0.0 3.0 0.00 0.05 0.05 86 1010.6
20240715113343 75 245 1.0 3.0 0.00 0.05 0.05 87 1010.5
20240715112847 75 249 0.0 3.0 0.00 0.05 0.05 87 1010.5
20240715112355 75 248 0.0 3.0 0.00 0.05 0.05 87 1010.5
20240715111921 75 252 0.0 2.0 0.00 0.05 0.05 87 1010.5
20240715111345 74 252 0.0 3.0 0.00 0.05 0.05 87 1010.3
20240715110851 74 251 1.0 3.0 0.00 0.05 0.05 87 1010.2
20240715110350 74 253 0.0 2.0 0.00 0.05 0.05 88 1010.2
20240715105920 74 252 1.0 2.0 0.00 0.05 0.05 88 1010.2
20240715105344 74 252 0.0 1.0 0.00 0.05 0.05 89 1010.3
20240715104848 74 252 0.0 3.0 0.00 0.05 0.05 89 1010.3
20240715104354 73 251 0.0 3.0 0.00 0.05 0.05 89 1010.3
20240715103842 73 259 0.0 2.0 0.00 0.05 0.05 89 1010.4
20240715103343 73 259 0.0 2.0 0.00 0.05 0.05 90 1010.3
20240715102846 73 259 0.0 2.0 0.00 0.05 0.05 90 1010.4
20240715102351 72 259 0.0 1.0 0.00 0.05 0.05 90 1010.4
20240715101854 72 259 0.0 1.0 0.00 0.05 0.05 90 1010.4
20240715101359 72 259 0.0 1.0 0.00 0.05 0.05 90 1010.4
20240715100847 72 259 0.0 0.0 0.00 0.05 0.05 90 1010.6
20240715100345 72 259 0.0 0.0 0.00 0.05 0.05 90 1010.6
20240715095916 72 259 0.0 1.0 0.00 0.05 0.05 90 1010.4
20240715095342 72 259 0.0 2.0 0.00 0.05 0.05 90 1010.5
20240715094844 72 259 0.0 2.0 0.00 0.05 0.05 90 1010.7
20240715094352 72 259 0.0 1.0 0.00 0.05 0.05 89 1010.6
20240715093856 72 259 0.0 1.0 0.00 0.05 0.05 89 1010.6
20240715093341 72 259 0.0 1.0 0.00 0.05 0.05 89 1010.7
20240715092846 72 259 0.0 1.0 0.00 0.05 0.05 89 1010.7
20240715092351 72 259 0.0 3.0 0.00 0.05 0.05 89 1010.6
20240715091854 72 259 0.0 2.0 0.00 0.05 0.05 89 1010.7
20240715091340 71 260 0.0 2.0 0.00 0.05 0.05 89 1010.7
20240715090907 71 258 0.0 3.0 0.00 0.05 0.05 89 1010.7
20240715090349 71 259 0.0 3.0 0.00 0.05 0.05 89 1010.6
20240715085900 71 237 1.0 3.0 0.00 0.05 0.05 89 1010.6
20240715085407 71 237 0.0 1.0 0.00 0.05 0.05 89 1010.5
20240715084909 71 232 0.0 3.0 0.00 0.05 0.05 89 1010.5
20240715084354 72 232 0.0 3.0 0.00 0.05 0.05 89 1010.5
20240715083841 72 242 0.0 4.0 0.00 0.05 0.05 89 1010.5
20240715083346 72 230 1.0 4.0 0.00 0.05 0.05 89 1010.4
20240715082852 72 316 0.0 1.0 0.00 0.05 0.05 89 1010.4
20240715082359 72 316 0.0 1.0 0.00 0.05 0.05 89 1010.4
20240715081843 72 316 0.0 0.0 0.00 0.05 0.05 89 1010.3
20240715081348 72 316 0.0 0.0 0.00 0.05 0.05 89 1010.4
20240715080914 72 316 0.0 0.0 0.00 0.05 0.05 89 1010.3
20240715080354 72 316 0.0 0.0 0.00 0.05 0.05 89 1010.3
20240715075847 72 316 0.0 0.0 0.00 0.05 0.05 89 1010.3
20240715075353 72 316 0.0 1.0 0.00 0.05 0.05 89 1010.3
20240715074856 72 316 0.0 1.0 0.00 0.05 0.05 89 1010.1
20240715074403 73 316 0.0 0.0 0.00 0.05 0.05 89 1010.1
20240715073851 73 316 0.0 0.0 0.00 0.05 0.05 89 1010.1
20240715073354 73 316 0.0 0.0 0.01 0.05 0.05 89 1010.1
20240715072858 73 316 0.0 1.0 0.01 0.05 0.05 89 1010.0
20240715072345 73 316 0.0 3.0 0.01 0.05 0.05 89 1010.1
20240715071850 73 316 0.0 3.0 0.01 0.05 0.05 89 1010.1
20240715071416 73 316 0.0 0.0 0.01 0.05 0.05 89 1010.1
20240715070844 73 316 0.0 0.0 0.01 0.05 0.05 89 1010.2
20240715070403 73 316 0.0 1.0 0.01 0.05 0.05 89 1010.3
20240715065852 73 316 0.0 2.0 0.01 0.05 0.05 89 1010.4
20240715065358 74 316 0.0 0.0 0.01 0.05 0.05 89 1010.4
20240715064904 74 316 0.0 0.0 0.01 0.05 0.05 89 1010.4
20240715064346 74 316 0.0 0.0 0.01 0.05 0.05 89 1010.3
20240715063913 74 316 0.0 2.0 0.01 0.05 0.05 89 1010.5
20240715063354 74 316 0.0 2.0 0.00 0.04 0.04 89 1010.6
20240715062919 74 316 0.0 2.0 0.00 0.04 0.04 89 1010.7
20240715062347 74 316 0.0 2.0 0.00 0.04 0.04 89 1010.6
20240715061852 75 316 0.0 2.0 0.00 0.04 0.04 89 1010.7
20240715061355 75 316 0.0 0.0 0.00 0.04 0.04 89 1010.8
20240715060842 75 316 0.0 0.0 0.00 0.04 0.04 89 1010.8
20240715060341 75 316 0.0 0.0 0.00 0.04 0.04 88 1010.8
20240715055853 75 316 0.0 1.0 0.00 0.04 0.04 88 1010.8
20240715055419 75 316 0.0 1.0 0.03 0.04 0.04 88 1010.9
20240715054843 76 316 0.0 2.0 0.04 0.04 0.04 88 1010.9
20240715054410 76 316 0.0 1.0 0.04 0.04 0.04 87 1010.9
20240715053855 76 316 0.0 1.0 0.04 0.04 0.04 87 1011.0
20240715053341 76 316 0.0 1.0 0.04 0.04 0.04 87 1011.1
20240715052847 77 316 0.0 0.0 0.04 0.04 0.04 87 1011.1
20240715052353 77 316 0.0 0.0 0.04 0.04 0.04 86 1011.3
20240715051857 77 316 0.0 1.0 0.04 0.04 0.04 86 1011.4
20240715051344 77 316 0.0 1.0 0.04 0.04 0.04 85 1011.5
20240715050851 77 316 0.0 4.0 0.04 0.04 0.04 84 1011.4
20240715050410 77 316 1.0 6.0 0.04 0.04 0.04 83 1011.5
20240715045841 78 289 2.0 7.0 0.04 0.04 0.04 82 1011.5
20240715045346 78 234 3.0 7.0 0.01 0.01 0.01 79 1011.6
20240715044851 78 306 0.0 2.0 0.00 0.00 0.00 78 1011.4
20240715044415 78 307 0.0 3.0 0.00 0.00 0.00 78 1011.5
20240715043841 78 307 0.0 3.0 0.00 0.00 0.00 78 1011.4
20240715043345 77 265 0.0 2.0 0.00 0.00 0.00 78 1011.6
20240715042912 77 265 0.0 2.0 0.00 0.00 0.00 78 1011.6
20240715042358 77 265 0.0 2.0 0.00 0.00 0.00 78 1011.6
20240715041841 77 271 0.0 3.0 0.00 0.00 0.00 78 1011.6
20240715041347 77 267 0.0 4.0 0.00 0.00 0.00 78 1011.7
20240715040911 77 267 1.0 4.0 0.00 0.00 0.00 78 1011.8
20240715040403 77 254 0.0 3.0 0.00 0.00 0.00 78 1011.7
20240715035847 78 224 1.0 3.0 0.00 0.00 0.00 78 1011.7
20240715035353 78 225 0.0 1.0 0.00 0.00 0.00 78 1011.6
20240715034856 78 225 0.0 1.0 0.00 0.00 0.00 77 1011.6
20240715034340 78 225 0.0 1.0 0.00 0.00 0.00 77 1011.7
20240715033844 78 225 0.0 2.0 0.00 0.00 0.00 77 1011.7
20240715033343 78 225 0.0 2.0 0.00 0.00 0.00 77 1011.6
20240715032846 78 225 0.0 1.0 0.00 0.00 0.00 76 1011.7
20240715032350 78 225 0.0 5.0 0.00 0.00 0.00 76 1011.8
20240715031850 78 225 0.0 5.0 0.00 0.00 0.00 76 1011.8
20240715031415 79 252 0.0 2.0 0.00 0.00 0.00 75 1011.8
20240715030856 79 251 0.0 2.0 0.00 0.00 0.00 75 1011.9
20240715030348 79 251 0.0 4.0 0.00 0.00 0.00 74 1011.9
20240715025859 79 252 1.0 4.0 0.00 0.00 0.00 73 1011.9
20240715025403 79 280 1.0 3.0 0.00 0.00 0.00 73 1011.9
20240715024903 80 287 1.0 3.0 0.00 0.00 0.00 72 1011.9
20240715024403 80 288 0.0 1.0 0.00 0.00 0.00 71 1011.9
20240715023844 80 288 0.0 1.0 0.00 0.00 0.00 70 1011.8
20240715023348 80 288 0.0 1.0 0.00 0.00 0.00 69 1011.8
20240715022856 80 288 0.0 3.0 0.00 0.00 0.00 69 1011.8
20240715022401 80 288 0.0 3.0 0.00 0.00 0.00 68 1011.8
20240715021845 81 288 0.0 2.0 0.00 0.00 0.00 68 1011.9
20240715021412 81 288 0.0 2.0 0.00 0.00 0.00 67 1011.8
20240715020856 81 289 0.0 3.0 0.00 0.00 0.00 66 1011.8
20240715020357 81 289 1.0 3.0 0.00 0.00 0.00 65 1011.9
20240715015925 81 288 0.0 2.0 0.00 0.00 0.00 64 1011.9
20240715015347 82 288 0.0 2.0 0.00 0.00 0.00 64 1011.9
20240715014850 82 291 0.0 2.0 0.00 0.00 0.00 62 1011.9
20240715014415 82 291 0.0 2.0 0.00 0.00 0.00 61 1011.9
20240715013858 82 291 0.0 2.0 0.00 0.00 0.00 61 1011.8
20240715013358 82 291 0.0 2.0 0.00 0.00 0.00 60 1011.7
20240715012900 83 291 0.0 1.0 0.00 0.00 0.00 59 1011.7
20240715012343 83 291 0.0 0.0 0.00 0.00 0.00 58 1011.6
20240715011848 83 291 0.0 0.0 0.00 0.00 0.00 58 1011.6
20240715011353 83 291 0.0 1.0 0.00 0.00 0.00 57 1011.5
20240715010859 84 291 0.0 1.0 0.00 0.00 0.00 56 1011.5
20240715010359 84 291 0.0 1.0 0.00 0.00 0.00 55 1011.5
20240715005849 84 291 0.0 0.0 0.00 0.00 0.00 55 1011.6
20240715005357 84 291 0.0 0.0 0.00 0.00 0.00 55 1011.5
20240715004920 85 291 0.0 0.0 0.00 0.00 0.00 54 1011.5
20240715004401 85 291 0.0 0.0 0.00 0.00 0.00 54 1011.5
20240715003849 85 291 0.0 0.0 0.00 0.00 0.00 53 1011.4
20240715003349 85 291 0.0 1.0 0.00 0.00 0.00 53 1011.4
20240715002916 85 291 0.0 3.0 0.00 0.00 0.00 52 1011.5
20240715002359 86 291 0.0 3.0 0.00 0.00 0.00 52 1011.6
20240715001900 86 292 0.0 3.0 0.00 0.00 0.00 52 1011.6
20240715001402 86 292 0.0 3.0 0.00 0.00 0.00 51 1011.6
20240715000848 86 291 1.0 4.0 0.00 0.00 0.00 50 1011.6
20240715000347 87 290 0.0 5.0 0.00 0.00 0.00 50 1011.6
20240714235856 87 290 1.0 5.0 0.00 0.00 0.00 50 1011.6
20240714235401 88 322 1.0 4.0 0.00 0.00 0.00 49 1011.7
20240714234843 88 329 1.0 4.0 0.00 0.00 0.00 48 1011.7
20240714234347 88 329 1.0 4.0 0.00 0.00 0.00 47 1011.7
20240714233853 89 347 2.0 4.0 0.00 0.00 0.00 46 1011.7
20240714233355 89 290 1.0 4.0 0.00 0.00 0.00 46 1011.7
20240714232900 89 290 2.0 4.0 0.00 0.00 0.00 45 1011.7
20240714232347 89 304 2.0 6.0 0.00 0.00 0.00 45 1011.7
20240714231852 90 317 1.0 6.0 0.00 0.00 0.00 45 1011.7
20240714231357 90 317 1.0 6.0 0.00 0.00 0.00 45 1011.7
20240714230904 90 329 1.0 7.0 0.00 0.00 0.00 44 1011.7
20240714230343 90 303 2.0 6.0 0.00 0.00 0.00 44 1011.7
20240714225854 90 301 2.0 6.0 0.00 0.00 0.00 44 1011.7
20240714225422 90 324 2.0 7.0 0.00 0.00 0.00 44 1011.7
20240714224906 91 277 0.0 7.0 0.00 0.00 0.00 44 1011.6
20240714224349 91 311 2.0 7.0 0.00 0.00 0.00 43 1011.7
20240714223854 91 306 3.0 7.0 0.00 0.00 0.00 43 1011.7
20240714223401 91 287 4.0 7.0 0.00 0.00 0.00 42 1011.7
20240714222848 92 290 3.0 6.0 0.00 0.00 0.00 42 1011.6
20240714222353 92 299 2.0 6.0 0.00 0.00 0.00 43 1011.6
20240714221857 92 284 1.0 6.0 0.00 0.00 0.00 44 1011.6
20240714221401 92 142 1.0 2.0 0.00 0.00 0.00 47 1011.6
20240714220847 92 140 0.0 3.0 0.00 0.00 0.00 47 1011.7
20240714220349 92 138 1.0 5.0 0.00 0.00 0.00 47 1011.7
20240714215843 92 329 2.0 5.0 0.00 0.00 0.00 46 1011.7
20240714215410 92 301 2.0 8.0 0.00 0.00 0.00 46 1011.7
20240714214854 92 221 2.0 8.0 0.00 0.00 0.00 46 1011.7
20240714214359 92 313 2.0 6.0 0.00 0.00 0.00 46 1011.7
20240714213844 92 38 1.0 3.0 0.00 0.00 0.00 45 1011.8
20240714213346 92 319 0.0 5.0 0.00 0.00 0.00 46 1011.7
20240714212853 92 319 1.0 7.0 0.00 0.00 0.00 45 1011.7
20240714212401 92 292 2.0 7.0 0.00 0.00 0.00 45 1011.7
20240714211845 92 276 3.0 6.0 0.00 0.00 0.00 44 1011.8
20240714211351 92 282 3.0 6.0 0.00 0.00 0.00 44 1011.8
20240714210917 92 288 1.0 6.0 0.00 0.00 0.00 43 1011.9
20240714210355 92 288 3.0 7.0 0.00 0.00 0.00 43 1011.8
20240714205847 92 311 3.0 7.0 0.00 0.00 0.00 45 1011.9
20240714205353 93 315 2.0 5.0 0.00 0.00 0.00 45 1011.8
20240714204856 92 303 2.0 9.0 0.00 0.00 0.00 44 1011.9
20240714204402 92 333 3.0 9.0 0.00 0.00 0.00 45 1011.9
20240714203910 92 297 1.0 7.0 0.00 0.00 0.00 45 1012.0
20240714203355 92 281 2.0 7.0 0.00 0.00 0.00 45 1012.1
20240714202859 92 298 4.0 7.0 0.00 0.00 0.00 47 1012.1
20240714202404 92 126 1.0 4.0 0.00 0.00 0.00 45 1012.2
20240714201847 92 349 1.0 5.0 0.00 0.00 0.00 46 1012.2
20240714201353 92 298 1.0 6.0 0.00 0.00 0.00 45 1012.3
20240714200919 93 282 3.0 8.0 0.00 0.00 0.00 45 1012.4
20240714200341 93 334 2.0 6.0 0.00 0.00 0.00 44 1012.4
20240714195852 93 294 1.0 6.0 0.00 0.00 0.00 44 1012.4
20240714195359 93 287 2.0 7.0 0.00 0.00 0.00 44 1012.5
20240714194843 93 282 2.0 10.0 0.00 0.00 0.00 45 1012.5
20240714194350 93 288 3.0 10.0 0.00 0.00 0.00 44 1012.5
20240714193859 92 300 2.0 5.0 0.00 0.00 0.00 45 1012.5
20240714193402 92 221 1.0 4.0 0.00 0.00 0.00 46 1012.5
20240714192848 92 78 2.0 7.0 0.00 0.00 0.00 44 1012.6
20240714192353 92 300 2.0 6.0 0.00 0.00 0.00 45 1012.7
20240714191856 92 294 2.0 7.0 0.00 0.00 0.00 44 1012.7
20240714191400 92 279 3.0 7.0 0.00 0.00 0.00 44 1012.8
20240714190848 92 320 3.0 6.0 0.00 0.00 0.00 44 1013.0
20240714190411 92 304 2.0 8.0 0.00 0.00 0.00 45 1012.9
20240714185900 92 328 1.0 4.0 0.00 0.00 0.00 46 1012.9
20240714185407 92 313 1.0 4.0 0.00 0.00 0.00 46 1012.9
20240714184850 91 320 1.0 5.0 0.00 0.00 0.00 46 1012.9
20240714184356 91 172 2.0 6.0 0.00 0.00 0.00 45 1012.9
20240714183843 92 315 3.0 6.0 0.00 0.00 0.00 45 1013.0
20240714183348 92 315 2.0 8.0 0.00 0.00 0.00 45 1013.0
20240714182912 92 333 2.0 8.0 0.00 0.00 0.00 45 1013.1
20240714182355 92 355 2.0 6.0 0.00 0.00 0.00 46 1013.1
20240714181857 92 67 2.0 6.0 0.00 0.00 0.00 46 1013.1
20240714181402 91 321 1.0 6.0 0.00 0.00 0.00 46 1013.1
20240714180848 91 324 0.0 6.0 0.00 0.00 0.00 47 1013.1
20240714180347 91 308 1.0 7.0 0.00 0.00 0.00 47 1013.2
20240714175858 91 267 1.0 7.0 0.00 0.00 0.00 47 1013.3
20240714175344 91 336 1.0 6.0 0.00 0.00 0.00 48 1013.3
20240714174848 91 63 1.0 8.0 0.00 0.00 0.00 48 1013.4
20240714174355 91 295 2.0 8.0 0.00 0.00 0.00 47 1013.4
20240714173902 91 163 1.0 7.0 0.00 0.00 0.00 48 1013.4
20240714173404 91 312 1.0 7.0 0.00 0.00 0.00 46 1013.5
20240714172849 91 296 2.0 7.0 0.00 0.00 0.00 48 1013.7
20240714172356 90 327 2.0 6.0 0.00 0.00 0.00 50 1013.8
20240714171859 90 333 2.0 6.0 0.00 0.00 0.00 49 1013.8
20240714171343 91 322 2.0 6.0 0.00 0.00 0.00 49 1013.8
20240714170850 91 277 3.0 6.0 0.00 0.00 0.00 48 1013.9
20240714170350 91 290 2.0 6.0 0.00 0.00 0.00 50 1013.9
20240714165900 91 316 2.0 6.0 0.00 0.00 0.00 49 1014.0
20240714165345 90 355 1.0 7.0 0.00 0.00 0.00 49 1013.9
20240714164910 90 290 1.0 6.0 0.00 0.00 0.00 49 1014.0
20240714164355 90 288 3.0 6.0 0.00 0.00 0.00 49 1014.1
20240714163844 90 346 2.0 6.0 0.00 0.00 0.00 51 1014.2
20240714163409 90 40 2.0 6.0 0.00 0.00 0.00 49 1014.2
20240714162854 90 319 0.0 3.0 0.00 0.00 0.00 50 1014.2
20240714162420 90 35 1.0 8.0 0.00 0.00 0.00 50 1014.4
20240714161845 90 315 3.0 8.0 0.00 0.00 0.00 50 1014.5
20240714161351 89 319 1.0 5.0 0.00 0.00 0.00 53 1014.5
20240714160852 89 317 1.0 6.0 0.00 0.00 0.00 53 1014.5
20240714160349 90 298 2.0 6.0 0.00 0.00 0.00 52 1014.6
20240714155854 90 296 2.0 6.0 0.00 0.01 0.00 51 1014.6
20240714155359 90 306 2.0 5.0 0.00 0.01 0.00 52 1014.6
20240714154842 90 328 1.0 5.0 0.00 0.01 0.00 51 1014.6
20240714154348 90 313 1.0 5.0 0.00 0.01 0.00 52 1014.7
20240714153854 89 317 1.0 5.0 0.00 0.01 0.00 51 1014.7
20240714153357 89 306 1.0 5.0 0.00 0.01 0.00 53 1014.8
20240714152843 89 123 1.0 4.0 0.00 0.01 0.00 52 1014.9
20240714152349 89 128 1.0 4.0 0.00 0.01 0.00 53 1014.9
20240714151852 89 307 1.0 4.0 0.00 0.01 0.00 53 1015.0
20240714151416 89 304 0.0 6.0 0.00 0.01 0.00 52 1015.0
20240714150921 89 319 1.0 6.0 0.00 0.01 0.00 54 1015.1
20240714150343 88 360 0.0 6.0 0.00 0.01 0.00 55 1015.2
20240714145911 88 300 1.0 6.0 0.00 0.05 0.00 56 1015.2
20240714145357 88 332 1.0 6.0 0.00 0.05 0.00 55 1015.1
20240714144918 88 292 3.0 6.0 0.00 0.05 0.00 53 1015.1
20240714144343 88 325 2.0 6.0 0.00 0.05 0.00 53 1015.1
20240714143848 88 272 1.0 4.0 0.00 0.05 0.00 54 1015.2